This demonstration page uses our WeatherBlox Daily Observations layout. Learn more.

Left ArrowRight Arrow

41.86663, -103.66717

Hourly Observations for April 10, 2018

Temp ( °F °C ) Dew Point ( °F °C ) Humidity (%) Winds ( mph kmh ) Pressure ( in mb ) Visibility ( mi km ) Precip ( " mm )
12:53 am 00:53 Clear 33 0.6 28 -2.2 82 82 NNE 6 9 30.21 1023 10 16 N/A
1:53 am 01:53 Clear 29 -1.7 26 -3.3 89 89 NW 6 9 30.21 1023 10 16 N/A
2:53 am 02:53 Clear 28 -2.2 26 -3.3 92 92 NNW 5 7 30.18 1022 10 16 N/A
3:53 am 03:53 Clear 26 -3.3 24 -4.4 92 92 NW 6 9 30.18 1022 10 16 N/A
4:53 am 04:53 Clear 28 -2.2 25 -3.9 88 88 N 8 13 30.17 1022 10 16 N/A
5:53 am 05:53 Clear 28 -2.2 25 -3.9 88 88 NW 5 7 30.18 1022 10 16 N/A
6:53 am 06:53 Sunny 30 -1.1 27 -2.8 88 88 NW 10 17 30.20 1023 10 16 N/A
7:53 am 07:53 Sunny 34 1.1 30 -1.1 85 85 WNW 12 19 30.22 1023 10 16 N/A
8:53 am 08:53 Sunny 41 5 33 0.6 73 73 WNW 12 19 30.21 1023 10 16 N/A
9:53 am 09:53 Sunny 48 8.9 34 1.1 58 58 WNW 8 13 30.19 1023 10 16 N/A
10:53 am 10:53 Sunny 56 13.3 31 -0.6 39 39 W 13 20 30.16 1021 10 16 N/A
11:53 am 11:53 Sunny 60 15.6 26 -3.3 27 27 W 12 19 30.12 1020 10 16 N/A
12:53 pm 12:53 Sunny 63 17.2 26 -3.3 25 25 WNW 14 22 30.07 1018 10 16 N/A
1:53 pm 13:53 Sunny 67 19.4 27 -2.8 22 22 WNW 13 20 30.03 1017 10 16 N/A
2:53 pm 14:53 Sunny 68 20 26 -3.3 21 21 WSW 12 19 29.99 1016 8 13 N/A
3:53 pm 15:53 Sunny 68 20 25 -3.9 20 20 NW 8 13 29.97 1015 10 16 N/A
4:53 pm 16:53 Sunny 71 21.7 26 -3.3 19 19 VRB 3 6 29.93 1014 10 16 N/A
5:53 pm 17:53 Sunny 69 20.6 26 -3.3 20 20 N N/A 29.91 1013 10 16 N/A
6:53 pm 18:53 Sunny 64 17.8 30 -1.1 28 28 SE 8 13 29.91 1013 10 16 N/A
7:53 pm 19:53 Clear 62 16.7 30 -1.1 30 30 SSE 7 11 29.91 1013 10 16 N/A
8:53 pm 20:53 Clear 61 16.1 27 -2.8 27 27 WSW 6 9 29.88 1012 10 16 N/A
11:53 pm 23:53 Clear 48 8.9 31 -0.6 52 52 N 7 11 29.82 1010 10 16 N/A

Powered by AerisWeather